This is the latest recevied weather packets stored in our database for station/object KC0RPY. If no packets are shown the sender has not sent any weather packets the latest 10 day(s).
| Time | Temp. | Humidity | Pressure | Rain* | Wind** | Luminosity | Snow |
|---|---|---|---|---|---|---|---|
| 1777640789 | 8.89° C | 73% | 1020.5 hPa | 0 mm | - | 80 W/m² | - |
| 1777640487 | 8.33° C | 72% | 1020.2 hPa | 0 mm | - | 44 W/m² | - |
| 1777640184 | 7.78° C | 72% | 1020.2 hPa | 0 mm | - | 59 W/m² | - |
| 1777639880 | 7.78° C | 73% | 1020.2 hPa | 0 mm | - | 58 W/m² | - |
| 1777639577 | 7.22° C | 74% | 1020.2 hPa | 0 mm | - | 47 W/m² | - |
| 1777639274 | 6.67° C | 76% | 1020.2 hPa | 0 mm | - | 38 W/m² | - |
| 1777638970 | 6.11° C | 80% | 1019.8 hPa | 0 mm | - | 36 W/m² | - |
| 1777638666 | 6.11° C | 80% | 1020.2 hPa | 0 mm | - | 34 W/m² | - |
| 1777638363 | 5.56° C | 81% | 1020.2 hPa | 0 mm | - | 32 W/m² | - |
| 1777638059 | 5.56° C | 84% | 1020.2 hPa | 0 mm | - | 31 W/m² | - |
| 1777637755 | 5.56° C | 82% | 1020.2 hPa | 0 mm | - | 29 W/m² | - |
| 1777637452 | 5° C | 82% | 1020.2 hPa | 0 mm | - | 26 W/m² | - |
| 1777637149 | 5° C | 83% | 1020.2 hPa | 0 mm | - | 24 W/m² | - |
| 1777636846 | 5° C | 83% | 1020.2 hPa | 0 mm | - | 22 W/m² | - |
| 1777636541 | 4.44° C | 84% | 1020.2 hPa | 0 mm | - | 19 W/m² | - |
| 1777636238 | 4.44° C | 86% | 1020.2 hPa | 0 mm | - | 16 W/m² | - |
| 1777635938 | 3.89° C | 86% | 1020.2 hPa | 0 mm | - | 13 W/m² | - |
| 1777635634 | 3.89° C | 86% | 1019.8 hPa | 0 mm | - | 10 W/m² | - |
| 1777635331 | 3.89° C | 86% | 1019.8 hPa | 0 mm | - | 7 W/m² | - |
| 1777635028 | 3.89° C | 86% | 1019.8 hPa | 0 mm | - | 5 W/m² | - |
| 1777634724 | 3.89° C | 86% | 1019.8 hPa | 0 mm | - | 2 W/m² | - |
| 1777634421 | 3.89° C | 87% | 1019.8 hPa | 0 mm | - | 1 W/m² | - |
| 1777634118 | 3.89° C | 87% | 1019.8 hPa | 0 mm | - | 0 W/m² | - |
| 1777633815 | 4.44° C | 85% | 1019.8 hPa | 0 mm | - | 0 W/m² | - |
| 1777633512 | 4.44° C | 84% | 1019.8 hPa | 0 mm | - | 0 W/m² | - |
* Rain latest hour (hover to see other rain measurements)
** Current wind speed in m/s (hover to see current wind gust speed)